Location: Johnson City
(36.3130°N, 82.3540°W)
Time: 15:36:38
(UTC-05:00)

Hubble Space Telescope - Visible Passes

Search period start: 23 November 2017 00:00
Search period end: 03 December 2017 00:00
Orbit: 537 x 541 km, 28.5° (Epoch: 22 November)

Date Brightness Start Highest point End Pass type
(mag) Time Alt. Az. Time Alt. Az. Time Alt. Az.
23 Nov 2.3 05:16:45 26° S 05:16:45 26° S 05:20:12 10° SE visible
24 Nov 2.6 05:07:10 23° S 05:07:10 23° S 05:09:50 10° SE visible
24 Nov 3.2 06:45:05 10° SW 06:47:04 13° SSW 06:49:02 10° S visible
25 Nov 3.0 04:57:36 19° SSE 04:57:36 19° SSE 04:59:26 10° SE visible
25 Nov 3.3 06:35:42 10° SW 06:36:43 11° SSW 06:37:45 10° S visible
26 Nov 3.4 04:48:02 14° SSE 04:48:02 14° SSE 04:48:58 10° SE visible
